Regional Weather Roundup
Issued by NWS

Home | Current Version | Previous Version | Text Only | Print | Product List | Glossary Off
Versions: 1 2 3 4 5 6 7 8 9 10 11 12 13 14 15 16 17 18 19 20 21 22 23 24 25 26 27 28 29 30 31 32 33 34 35 36 37 38 39 40 41 42 43 44 45 46 47 48 49 50

000
ASUS43 KBIS 270610
RWRND

NORTH DAKOTA REGIONAL WEATHER ROUNDUP
NATIONAL WEATHER SERVICE BISMARCK ND
100 AM CDT TUE SEP 27 2016

NOTE: "FAIR" INDICATES FEW OR NO CLOUDS BELOW 12,000 FEET WITH NO
SIGNIFICANT WEATHER AND/OR OBSTRUCTIONS TO VISIBILITY.


NDZ001>003-009>011-017-270700-
NORTHWEST NORTH DAKOTA

CITY           SKY/WX    TMP DP  RH WIND       PRES   REMARKS
WILLISTON      CLEAR     43  39  86 CALM      30.06F
6HR MIN TEMP:  42; 6HR MAX TEMP:  68;

MINOT          CLEAR     46  38  73 W6        30.04R
MINOT AFB      CLEAR     43  37  79 NW7       30.03S
$$

NDZ018>021-031>035-040>046-270700-
SOUTHWEST NORTH DAKOTA

CITY           SKY/WX    TMP DP  RH WIND       PRES   REMARKS
BISMARCK       CLEAR     43  38  82 W5        30.06F
6HR MIN TEMP:  41; 6HR MAX TEMP:  65;

DICKINSON      CLEAR     44  38  79 SW7       30.07F
GARRISON         N/A     42  38  85 NW7       30.05S
6HR MIN TEMP:  42; 6HR MAX TEMP:  63;

HETTINGER ARPT PTCLDY    43  38  82 CALM      30.12F
$$

NDZ004>008-012>016-024-026-027-054-270700-
NORTHEAST NORTH DAKOTA

CITY           SKY/WX    TMP DP  RH WIND       PRES   REMARKS
GRAND FORKS    CLEAR     42  37  82 W8        29.94R
GRND FRKS AFB  CLEAR     42  36  76 NW9       29.94S
DEVILS LAKE    CLEAR     46  37  71 NW9       29.99S
$$

NDZ022-023-025-028>030-036>039-047>053-270700-
SOUTHEAST NORTH DAKOTA

CITY           SKY/WX    TMP DP  RH WIND       PRES   REMARKS
FARGO          CLEAR     43  34  70 NW5       29.94S
6HR MIN TEMP:  43; 6HR MAX TEMP:  62;

JAMESTOWN      CLEAR     44  38  79 NW10      29.99F
$$





USA.gov is the U.S. government's official web portal to all federal, state and local government web resources and services.